Weather in Osinovo

Russia / Republic of Tatarstan     55°52′39″N   48°53′23″E
temp.,
°C
wind,
m/s
gust,
m/s
humid.,
%
clouds,
%
prec.,
mm/h
press.,
hPa
HPBL,
m
4 march, thu
thu400:00−8wsw479597 0.1 1003152
03:00−7wsw5109598 0.8 1002431
06:00−4wsw51196100 0.6 999454
09:00−2sw71296100 1.1 997683
12:00−1sw91497100 1.3 9931059
15:000wsw111798100 2.4 9901086
18:00−2w81582100 0.3 991875
21:00−5w6139068 0.3 995467
5 march, fri
fri500:00−8w499678 0.0 996179
03:00−12wnw349657 0.0 99956
06:00−14nw33968 0.0 100125
09:00−11nw34928 0.0 1003155
12:00−7wnw24830 0.0 1005383
15:00−6wsw468914 0.0 1006561
18:00−11wsw469574 0.0 100782
21:00−12wsw469658 0.0 100987
6 march, sat
sat600:00−11wsw359684 0.1 100998
03:00−10wsw359690 0.8 1010200
06:00−14nw349788 0.1 101139
09:00−12nnw359394 0.2 1012303
12:00−11nw358590 0.0 1013691
15:00−11nw458695 0.1 1012855
18:00−16nw2393100 0.1 101320
21:00−17wnw229798 0.1 101320
7 march, sun
sun700:00−18w339981 0.0 101333
03:00−19wsw3310079 0.1 101324
06:00−20sw3310082 0.0 101245
09:00−14ssw479688 0.1 1010260
12:00−10s6992100 0.1 1008475
15:00−9s71391100 0.1 1005664
18:00−7s71394100 0.9 1002907
21:00−7ssw81494100 2.2 998919
8 march, mon
mon800:00−6s81594100 1.1 994816
03:00−9wsw71490100 1.9 994763
06:00−13wsw6138769 0.1 996328
09:00−10wsw7138366 0.1 999575
12:00−6sw6107769 0.0 1000796
15:00−7s598484 0.0 999548
18:00−10se3389100 0.0 99834
21:00−13nne229090 0.0 99921